This is the latest recevied weather packets stored in our database for station/object HP1COO-13. If no packets are shown the sender has not sent any weather packets the latest 10 day(s).
| Time | Temp. | Humidity | Pressure | Rain* | Wind** | Luminosity | Snow |
|---|---|---|---|---|---|---|---|
| 1788374158 | 32.78° C | 69% | 1008 hPa | 0 mm | - | - | - |
| 1788373525 | 32.78° C | 68% | 1008.4 hPa | 0 mm | - | - | - |
| 1788372259 | 32.78° C | 67% | 1008.8 hPa | 0 mm | - | - | - |
| 1788371626 | 32.78° C | 69% | 1008.8 hPa | 0 mm | - | - | - |
| 1788370993 | 33.33° C | 67% | 1009 hPa | 0 mm | - | - | - |
| 1788370360 | 33.33° C | 67% | 1009.1 hPa | 0 mm | - | - | - |
| 1788369727 | 32.78° C | 69% | 1009.1 hPa | 0 mm | - | - | - |
| 1788369094 | 33.33° C | 69% | 1009 hPa | 0 mm | - | - | - |
| 1788368461 | 32.78° C | 69% | 1009.2 hPa | 0 mm | - | - | - |
| 1788367828 | 32.78° C | 70% | 1009.6 hPa | 0 mm | - | - | - |
| 1788367195 | 32.22° C | 70% | 1009.5 hPa | 0 mm | - | - | - |
| 1788366562 | 32.78° C | 69% | 1009.6 hPa | 0 mm | - | - | - |
| 1788365929 | 31.67° C | 72% | 1009.9 hPa | 0 mm | - | - | - |
| 1788364030 | 32.22° C | 71% | 1010.3 hPa | 0 mm | - | - | - |
| 1788363397 | 32.78° C | 71% | 1010.3 hPa | 0 mm | - | - | - |
| 1788362764 | 32.22° C | 72% | 1010.4 hPa | 0 mm | - | - | - |
| 1788362131 | 32.22° C | 72% | 1010.4 hPa | 0 mm | - | - | - |
| 1788361498 | 31.67° C | 72% | 1010.4 hPa | 0 mm | - | - | - |
| 1788360865 | 31.11° C | 74% | 1010.8 hPa | 0 mm | - | - | - |
| 1788359599 | 31.67° C | 73% | 1011.1 hPa | 0 mm | - | - | - |
| 1788358966 | 31.11° C | 74% | 1011.2 hPa | 0 mm | - | - | - |
| 1788358333 | 31.11° C | 75% | 1011.3 hPa | 0 mm | - | - | - |
| 1788357067 | 30° C | 78% | 1011.4 hPa | 0 mm | - | - | - |
| 1788356434 | 29.44° C | 78% | 1011.4 hPa | 0 mm | - | - | - |
| 1788355802 | 28.89° C | 80% | 1011.5 hPa | 0 mm | - | - | - |
* Rain latest hour (hover to see other rain measurements)
** Current wind speed in m/s (hover to see current wind gust speed)